Weather History for KM40 - January, 2013

Change the Weather History Date:

Wednesday, January 9, 2013

  Actual Average (KCBM) Record (KCBM)
Temperature  
Mean Temperature 56 °F -  
Max Temperature 59 °F 51 °F 71 °F (2006)
Min Temperature 53 °F 34 °F 18 °F (2015)
Degree Days  
Heating Degree Days 9    
Growing Degree Days 6 (Base 50)    
Moisture  
Dew Point 45 °F    
Average Humidity 68    
Maximum Humidity 77    
Minimum Humidity 55    
Precipitation  
Precipitation 0.19 in - - ()
Sea Level Pressure  
Sea Level Pressure 30.29 in    
Wind  
Wind Speed 1 mph (East)    
Max Wind Speed 7 mph    
Max Gust Speed -    
Visibility 4 miles    
Events Rain    
Averages and records for this station are not official NWS values.
T = Trace of Precipitation, MM = Missing Value Source: NWS Daily Summary

Daily Weather History Graph

Daily Weather History Graph

Search for Another Location

Airport or City:

Trip Planner

Search our weather history database for the weather conditions in past years. The results will help you decide how hot, cold, wet, or windy it might be!

Date:

Astronomy

Jan. 09, 2013 Rise Set
Actual Time 6:59 AM CST 5:02 PM CST
Civil Twilight 6:32 AM CST 5:30 PM CST
Nautical Twilight 6:01 AM CST 6:01 PM CST
Astronomical Twilight 5:31 AM CST 6:31 PM CST
Moon 4:38 AM CST (1/9) 3:04 PM CST (1/9)
Length of Visible Light 10h 57m
Length of Day
10h 03m
Waning Crescent, 6% of the Moon is Illuminated
Jan 9
Waning Crescent
Jan 11
New
Jan 18
First Quarter
Jan 26
Full
Feb 3
Last Quarter

Hourly Weather History & Observations

Time (CST) Temp. Dew Point Humidity Pressure Visibility Wind Dir Wind Speed Gust Speed Precip Events Conditions
12:15 AM 55.4 °F 44.6 °F 67% 30.25 in 10.0 mi Calm Calm - N/A   Overcast
12:35 AM 55.4 °F 44.6 °F 67% 30.25 in 10.0 mi Calm Calm - N/A   Overcast
12:55 AM 55.4 °F 44.6 °F 67% 30.26 in 9.0 mi Calm Calm - N/A   Overcast
1:15 AM 55.4 °F 44.6 °F 67% 30.26 in 5.0 mi Calm Calm - N/A   Haze
1:35 AM 53.6 °F 44.6 °F 72% 30.26 in 6.0 mi Calm Calm - N/A   Haze
1:55 AM 53.6 °F 44.6 °F 72% 30.26 in 6.0 mi Calm Calm - N/A   Light Drizzle
2:15 AM 53.6 °F 44.6 °F 72% 30.26 in 4.0 mi Calm Calm - N/A   Light Drizzle
2:35 AM 53.6 °F 44.6 °F 72% 30.26 in 5.0 mi East 3.5 mph - N/A   Light Drizzle
2:55 AM 53.6 °F 44.6 °F 72% 30.27 in 5.0 mi Calm Calm - N/A   Light Drizzle
3:15 AM 53.6 °F 44.6 °F 72% 30.27 in 4.0 mi Calm Calm - N/A   Light Drizzle
3:35 AM 53.6 °F 44.6 °F 72% 30.28 in 3.0 mi Calm Calm - N/A   Drizzle
3:55 AM 53.6 °F 44.6 °F 72% 30.27 in 3.0 mi Calm Calm - N/A Rain Light Rain
4:15 AM 53.6 °F 44.6 °F 72% 30.27 in 2.5 mi Calm Calm - N/A Rain Light Rain
4:35 AM 53.6 °F 46.4 °F 77% 30.28 in 3.0 mi Calm Calm - 0.01 in   Light Drizzle
4:55 AM 53.6 °F 44.6 °F 72% 30.27 in 4.0 mi Calm Calm - 0.01 in   Light Drizzle
5:15 AM 53.6 °F 44.6 °F 72% 30.28 in 4.0 mi Calm Calm - N/A   Light Drizzle
5:35 AM 53.6 °F 44.6 °F 72% 30.28 in 3.0 mi Calm Calm - N/A   Light Drizzle
5:55 AM 53.6 °F 44.6 °F 72% 30.28 in 3.0 mi Calm Calm - N/A   Haze
6:15 AM 53.6 °F 44.6 °F 72% 30.28 in 3.0 mi Calm Calm - N/A   Light Drizzle
6:35 AM 53.6 °F 44.6 °F 72% 30.29 in 3.0 mi Calm Calm - N/A   Light Drizzle
6:55 AM 53.6 °F 44.6 °F 72% 30.30 in 4.0 mi Calm Calm - N/A   Light Drizzle
7:15 AM 53.6 °F 44.6 °F 72% 30.30 in 5.0 mi Calm Calm - N/A   Light Drizzle
7:35 AM 53.6 °F 44.6 °F 72% 30.31 in 5.0 mi Calm Calm - N/A   Haze
7:55 AM 53.6 °F 44.6 °F 72% 30.32 in 2.5 mi Calm Calm - N/A Rain Light Rain
8:35 AM 53.6 °F 44.6 °F 72% 30.34 in 2.5 mi Calm Calm - N/A Rain Light Rain
8:55 AM 53.6 °F 46.4 °F 77% 30.34 in 3.0 mi ESE 4.6 mph - N/A   Haze
9:15 AM 53.6 °F 44.6 °F 72% 30.35 in 3.0 mi Calm Calm - N/A   Light Drizzle
9:35 AM 55.4 °F 44.6 °F 67% 30.35 in 2.5 mi ESE 3.5 mph - N/A Rain Light Rain
9:55 AM 55.4 °F 44.6 °F 67% 30.35 in 3.0 mi Calm Calm - N/A   Light Drizzle
10:15 AM 55.4 °F 46.4 °F 72% 30.35 in 2.5 mi Calm Calm - N/A   Light Drizzle
10:35 AM 55.4 °F 44.6 °F 67% 30.34 in 0.8 mi Calm Calm - 0.02 in Rain Light Rain
10:55 AM 55.4 °F 46.4 °F 72% 30.33 in 2.5 mi NE 3.5 mph - 0.03 in   Haze
11:15 AM 55.4 °F 46.4 °F 72% 30.31 in 3.0 mi NE 3.5 mph - N/A   Haze
11:35 AM 57.2 °F 46.4 °F 67% 30.32 in 2.5 mi Calm Calm - N/A   Light Drizzle
12:15 PM 57.2 °F 46.4 °F 67% 30.29 in 2.5 mi ENE 3.5 mph - N/A   Light Drizzle
12:35 PM 57.2 °F 46.4 °F 67% 30.29 in 3.0 mi Calm Calm - N/A   Light Drizzle
12:55 PM 57.2 °F 46.4 °F 67% 30.30 in 1.8 mi Calm Calm - N/A Rain Light Rain
1:15 PM 57.2 °F 46.4 °F 67% 30.30 in 0.8 mi Calm Calm - 0.03 in Rain Light Rain
1:35 PM 57.2 °F 46.4 °F 67% 30.28 in 1.2 mi Calm Calm - 0.05 in Rain Light Rain
2:15 PM 57.2 °F 46.4 °F 67% 30.28 in 1.8 mi NE 3.5 mph - 0.01 in Rain Light Rain
2:35 PM 57.2 °F 44.6 °F 63% 30.28 in 3.0 mi Calm Calm - 0.02 in   Light Drizzle
2:55 PM 57.2 °F 46.4 °F 67% 30.28 in 4.0 mi NE 3.5 mph - 0.02 in   Drizzle
3:15 PM 57.2 °F 46.4 °F 67% 30.28 in 5.0 mi Calm Calm - N/A   Light Drizzle
3:35 PM 57.2 °F 46.4 °F 67% 30.27 in 4.0 mi NE 5.8 mph - N/A   Drizzle
3:55 PM 57.2 °F 46.4 °F 67% 30.28 in 4.0 mi Calm Calm - N/A   Light Drizzle
4:15 PM 57.2 °F 46.4 °F 67% 30.28 in 4.0 mi Calm Calm - N/A   Light Drizzle
4:35 PM 57.2 °F 46.4 °F 67% 30.28 in 5.0 mi Calm Calm - N/A   Haze
4:55 PM 57.2 °F 46.4 °F 67% 30.28 in 5.0 mi Calm Calm - N/A Rain Light Rain
5:15 PM 57.2 °F 46.4 °F 67% 30.28 in 6.0 mi ENE 5.8 mph - N/A   Light Drizzle
5:35 PM 57.2 °F 46.4 °F 67% 30.30 in 4.0 mi Calm Calm - N/A Rain Light Rain
5:55 PM 57.2 °F 44.6 °F 63% 30.30 in 1.8 mi East 3.5 mph - 0.04 in   Light Drizzle
6:15 PM 57.2 °F 44.6 °F 63% 30.30 in 3.0 mi East 3.5 mph - N/A   Light Drizzle
6:35 PM 57.2 °F 46.4 °F 67% 30.30 in 1.2 mi East 4.6 mph - 0.03 in Rain Rain
6:55 PM 57.2 °F 46.4 °F 67% 30.29 in 10.0 mi East 6.9 mph - 0.04 in   Overcast
7:15 PM 57.2 °F 46.4 °F 67% 30.29 in 6.0 mi East 4.6 mph - N/A   Haze
7:35 PM 59.0 °F 46.4 °F 63% 30.30 in 5.0 mi East 6.9 mph - N/A   Haze
7:55 PM 59.0 °F 46.4 °F 63% 30.30 in 3.0 mi East 5.8 mph - N/A Rain Light Rain
8:35 PM 57.2 °F 44.6 °F 63% 30.30 in 7.0 mi ESE 6.9 mph - N/A   Overcast
8:55 PM 57.2 °F 44.6 °F 63% 30.30 in 5.0 mi ESE 4.6 mph - N/A   Light Drizzle
9:15 PM 57.2 °F 44.6 °F 63% 30.31 in 4.0 mi SE 3.5 mph - N/A   Haze
9:35 PM 57.2 °F 42.8 °F 59% 30.30 in 5.0 mi SE 3.5 mph - N/A   Haze
9:55 PM 57.2 °F 44.6 °F 63% 30.30 in 5.0 mi SE 5.8 mph - N/A   Haze
10:15 PM 57.2 °F 44.6 °F 63% 30.32 in 5.0 mi SE 5.8 mph - N/A   Haze
10:35 PM 59.0 °F 44.6 °F 59% 30.31 in 5.0 mi SE 3.5 mph - N/A   Haze
11:15 PM 59.0 °F 44.6 °F 59% 30.31 in 5.0 mi SE 3.5 mph - N/A   Haze
11:35 PM 59.0 °F 42.8 °F 55% 30.31 in 5.0 mi SE 4.6 mph - N/A   Haze
11:55 PM 59.0 °F 44.6 °F 59% 30.29 in 5.0 mi ESE 5.8 mph - N/A   Haze